Lid_Strength_Index
18 17 17 17 17 17 17 17 17 17 19 16 15 15 15 14 13 14 17 17 15 15 15 14 14 14 14 14 13 13 14 13 13 12 12 11 11 11 10 10 9 8 8 7
17 17 17 18 16 16 16 17 17 20 20 15 13 14 15 14 14 14 14 15 16 15 15 15 17 14 14 14 14 13 14 14 13 12 12 12 11 11 10 10 8 8 8 8
18 17 17 19 17 17 16 17 16 17 15 14 15 14 14 14 13 14 14 14 14 14 14 15 14 14 14 13 12 13 14 14 13 12 12 12 12 11 10 10 8 8 8 9
19 18 21 16 15 14 15 15 15 16 14 13 13 13 13 13 13 14 13 13 13 14 14 14 14 14 13 13 13 13 13 13 13 13 13 12 12 11 10 9 8 9 9 9
19 19 17 17 16 17 17 16 14 14 14 14 14 14 15 13 13 13 13 12 13 13 13 14 14 13 13 13 13 13 13 13 12 12 13 12 12 11 11 10 9 9 9 8
20 20 20 16 15 14 14 18 14 13 14 14 13 15 14 13 13 13 13 13 13 13 13 14 14 14 14 14 13 13 13 13 12 12 12 12 12 12 11 10 11 13 11 10
19 21 20 16 15 14 19 17 14 12 12 12 13 13 13 13 13 13 13 13 14 14 15 15 15 14 14 14 14 14 13 13 13 12 12 11 11 12 12 12 12 12 12 12
19 22 21 15 15 15 14 13 13 12 12 11 13 12 13 13 13 13 14 14 15 15 16 16 15 13 14 14 14 14 14 14 14 13 13 12 12 12 13 12 12 14 14 14
14 15 14 12 14 12 11 12 13 12 12 12 13 13 13 14 14 14 15 15 16 16 16 17 16 14 14 14 13 13 13 13 13 13 13 13 12 12 13 13 13 14 14 13
14 13 14 13 12 11 11 12 12 12 12 12 13 13 14 14 15 15 16 16 18 18 17 17 17 15 13 13 13 12 13 13 13 13 13 12 13 13 12 12 13 13 13 13
16 14 13 12 11 10 11 12 12 12 11 12 13 14 14 15 16 16 16 18 18 19 18 19 19 19 15 13 12 12 12 12 12 12 13 12 13 13 13 12 12 12 13 13
13 12 11 11 11 11 12 12 12 13 14 14 13 14 15 15 16 16 16 18 18 19 19 20 20 20 20 14 13 14 13 12 11 11 12 12 12 12 10 10 10 10 10 12
11 10 12 12 12 12 13 13 13 13 13 14 15 14 15 16 17 17 18 19 20 20 21 22 22 21 23 20 14 15 15 14 13 12 11 12 12 12 12 11 10 10 10 10
11 11 13 14 13 14 13 14 15 15 13 13 14 15 15 17 18 19 19 20 21 23 25 26 26 23 23 23 21 22 21 15 14 13 12 11 12 12 11 12 13 12 10 10
13 12 12 15 16 17 15 14 14 15 15 16 15 15 15 17 18 20 23 26 24 24 26 27 27 25 26 26 23 25 20 15 14 13 13 12 12 12 12 11 11 11 11 10
16 15 14 14 16 16 14 14 15 16 16 17 16 17 18 20 22 25 25 26 23 23 28 30 27 27 28 28 26 25 23 22 16 13 13 13 12 12 12 11 11 11 11 11
14 17 16 16 16 15 19 15 14 16 17 18 19 20 21 23 25 25 26 30 30 28 29 28 27 29 29 28 26 24 24 23 23 21 16 13 13 13 12 12 11 11 11 11
15 13 14 13 16 17 19 18 18 18 20 21 21 22 23 23 23 27 29 31 30 26 27 28 30 29 28 27 25 23 23 23 20 15 14 14 14 13 12 12 12 12 11 11
20 17 18 18 18 18 20 21 23 21 23 22 22 24 25 26 26 27 32 29 28 28 27 31 23 29 28 26 23 23 23 23 20 16 14 14 14 13 13 13 12 12 11 11
23 23 22 24 23 21 25 26 23 24 25 23 23 23 25 27 29 29 33 31 32 29 33 33 32 30 29 28 25 26 26 25 24 23 19 16 14 14 14 13 13 13 12 12
24 24 25 25 27 28 28 27 25 26 28 27 24 27 29 36 37 37 31 29 30 33 33 30 31 28 27 27 25 28 29 28 27 26 27 25 21 19 16 13 13 13 13 12
24 24 25 25 27 29 29 28 29 30 30 31 32 33 31 33 35 35 35 30 31 30 32 31 30 29 27 26 26 27 28 28 28 27 27 26 26 24 22 20 18 16 14 13
26 25 24 24 26 28 28 28 29 28 29 31 31 33 31 31 32 30 28 31 34 31 30 30 29 26 23 27 28 28 28 28 27 26 26 26 24 24 23 22 21 19 18 16
27 28 28 27 25 25 27 31 30 32 31 35 36 36 33 31 32 34 33 31 30 31 31 30 28 23 26 30 29 29 29 28 27 27 26 25 24 23 22 22 21 20 20 19
30 29 27 26 27 30 30 32 30 31 31 32 35 36 37 36 32 33 35 34 30 31 33 30 25 25 33 35 32 31 29 29 29 29 27 26 26 25 24 24 23 21 20 19
30 30 31 31 32 32 33 31 30 34 34 33 34 35 35 35 35 35 35 33 34 33 34 34 34 34 35 34 33 31 29 28 27 27 27 26 26 26 25 25 24 23 22 21
29 29 30 30 32 34 35 34 33 33 37 37 35 34 34 34 34 32 31 33 33 32 34 35 34 33 34 34 33 31 29 28 27 27 27 27 26 26 25 25 24 23 22 21